Regional Weather Roundup
Issued by NWS

Home | Current Version | Previous Version | Graphics & Text | Print | Product List | Glossary On
Versions: 1 2 3 4 5 6 7 8 9 10 11 12 13 14 15 16 17 18 19 20 21 22 23 24 25 26 27
000
ASUS45 KBOI 171410
RWRID

IDAHO REGIONAL WEATHER ROUNDUP
NATIONAL WEATHER SERVICE BOISE ID
800 AM MDT THU AUG 17 2017

NOTE: "FAIR" INDICATES FEW OR NO CLOUDS BELOW 12000 FEET
WITH NO SIGNIFICANT WEATHER AND/OR OBSTRUCTIONS TO VISIBILITY

IDZ012-014-171500-
SOUTHWEST IDAHO


CITY           SKY/WX    TMP DP  RH WIND       PRES   REMARKS
BOISE          SUNNY     60  39  45 SE8       30.08R
CALDWELL       SUNNY     58  49  72 NE3       30.07R HAZE
MOUNTAIN HOME  SUNNY     62  42  48 W6        30.08R
$$

IDZ016-017-171500-
SOUTHCENTRAL IDAHO


CITY           SKY/WX    TMP DP  RH WIND       PRES   REMARKS
BURLEY         SUNNY     57  45  64 SW5       30.12R
JEROME         SUNNY     59  42  53 S7        30.12R
TWIN FALLS     SUNNY     62  39  42 S15       30.13R
$$

IDZ019>023-171500-
SOUTHEAST IDAHO


CITY           SKY/WX    TMP DP  RH WIND       PRES   REMARKS
IDAHO FALLS    SUNNY     58  40  51 SW8       30.14R
POCATELLO      SUNNY     65  36  34 SW7       30.14R
REXBURG        SUNNY     54  42  64 CALM      30.13R
$$

IDZ006-010-011-018-031-032-171500-
CENTRAL IDAHO MOUNTAINS


CITY           SKY/WX    TMP DP  RH WIND       PRES   REMARKS
MCCALL         SUNNY     48  37  65 CALM      30.16R
HAILEY         SUNNY     52  39  62 NW8       30.18R
STANLEY          N/A     40  33  76 CALM      30.27R
SALMON         SUNNY     50  43  77 N3        30.15R
CHALLIS        SUNNY     51  40  65 CALM      30.18R
$$

IDZ002-004-006-007-026-171500-
NORTHERN IDAHO


CITY           SKY/WX    TMP DP  RH WIND       PRES   REMARKS
LEWISTON       SUNNY     63  43  48 CALM      30.04R
LOWELL           N/A     54  46  74 CALM      30.11R
COEUR D`ALENE  SUNNY     62  49  62 S5        30.06R
MULLAN PASS    SUNNY     53  38  56 VRB5      30.18R
$$




USA.gov is the U.S. government's official web portal to all federal, state and local government web resources and services.